GFSGBSN_prec_cthk_231.txt.gz
RH
14 16 15 12 10 10 10 10 11 10 9 9 9 8 7 5 4 3 3 3 3 2 2 2 2 2 2 9 8 9 6 8 10 16 21 25 31 24 21 17 10 8 8 8 8 9 9
15 14 15 12 11 11 12 13 12 10 10 9 8 7 7 6 5 4 3 3 3 4 3 3 3 2 10 11 7 6 6 6 8 11 15 20 21 27 26 22 18 11 9 9 8 8 9
18 18 15 14 12 12 16 15 13 11 10 9 9 8 6 5 5 4 4 4 4 5 6 5 4 4 11 10 8 7 6 5 6 10 13 17 20 22 25 27 24 20 13 10 8 8 8
19 17 16 14 12 11 16 15 13 11 10 9 8 7 6 5 5 4 5 6 6 6 6 6 5 12 14 10 7 6 7 7 5 6 9 14 18 20 22 25 28 27 20 13 7 8 8
16 15 15 14 12 14 17 15 13 12 10 9 7 7 6 6 5 5 6 7 8 8 8 9 16 19 17 10 12 11 11 15 11 8 7 14 19 19 18 22 24 33 28 21 14 9 8
18 17 15 14 13 16 15 16 13 11 10 9 8 7 7 6 5 6 8 11 11 13 13 18 20 18 20 15 11 11 11 11 14 21 13 12 23 21 19 19 20 22 28 28 21 16 12
16 17 19 17 19 19 14 12 12 10 9 9 8 8 7 6 6 8 12 16 18 24 14 15 16 16 15 16 13 12 14 16 19 25 20 15 22 25 17 16 15 15 20 23 28 24 16
17 20 20 18 21 17 15 13 12 11 10 10 9 9 8 7 8 12 22 22 25 21 22 18 18 19 21 21 19 16 14 19 17 22 25 23 27 20 21 17 16 15 18 21 23 25 21
18 19 21 20 19 17 16 15 13 12 11 11 11 10 9 8 10 16 24 23 26 26 27 24 19 21 24 25 26 24 21 23 23 26 32 32 19 20 19 21 22 17 19 20 23 24 29
18 18 19 19 18 19 17 16 14 13 12 12 14 12 10 10 19 17 23 21 21 23 35 22 25 33 32 33 42 38 32 25 34 31 32 46 29 19 24 24 25 23 20 23 26 27 29
19 19 18 19 21 20 18 18 16 14 13 13 15 14 13 12 18 24 22 22 21 34 41 22 26 27 32 40 46 56 50 37 32 39 58 48 46 28 23 29 28 25 33 27 27 28 36
20 20 21 20 21 21 22 20 18 15 14 15 17 16 14 23 24 25 25 21 31 48 45 21 29 33 36 44 70 69 77 52 34 37 49 44 63 47 30 27 32 36 38 37 33 33 45
21 21 22 21 22 22 22 21 18 16 16 17 18 16 15 20 26 27 24 33 46 42 20 28 31 35 36 49 63 73 77 78 46 35 32 42 43 60 49 46 33 39 50 48 48 47 40
20 21 22 23 24 23 22 21 19 17 18 19 19 18 19 20 25 24 33 37 44 25 27 27 30 27 38 50 52 56 72 72 75 44 44 29 25 32 43 47 40 37 39 41 49 45 32
17 19 21 23 25 26 26 24 22 21 21 21 25 28 29 26 22 27 40 50 44 31 31 33 28 28 44 48 50 51 60 72 66 79 63 48 37 25 18 18 40 38 49 31 38 40 39
16 16 17 20 22 25 27 27 26 25 26 23 29 36 32 23 27 35 43 45 39 34 37 40 42 36 45 47 40 44 53 71 72 65 74 65 66 50 43 40 31 31 38 49 48 52 48
16 16 16 18 20 21 26 29 29 29 28 26 33 40 33 29 34 41 49 45 40 39 41 44 48 49 52 52 47 46 53 65 86 84 74 70 70 50 49 52 55 49 40 40 48 51 46
14 14 15 16 18 19 23 28 32 33 31 33 38 44 36 32 43 45 48 39 38 39 37 41 43 50 53 61 60 56 50 58 66 69 85 94 88 82 56 51 45 49 57 62 53 44 51
13 14 15 16 17 18 20 25 32 35 32 40 43 45 40 38 51 52 44 38 35 33 36 41 42 47 54 55 63 58 57 60 61 62 74 85 81 72 61 48 46 53 45 66 76 69 60
13 14 14 15 16 17 18 24 28 34 32 40 45 49 49 47 45 44 48 41 36 40 36 38 41 40 50 49 45 58 57 59 62 59 66 65 67 71 69 72 78 77 65 56 60 90 81
13 13 14 14 16 17 17 22 26 29 31 41 47 49 48 56 53 49 47 44 38 43 41 42 43 46 50 47 45 39 49 47 46 58 63 71 76 72 69 63 70 76 68 61 55 58 82
13 14 15 16 16 16 16 21 25 27 28 42 45 52 53 50 51 49 51 50 42 42 46 49 46 42 42 46 45 44 46 44 39 36 59 70 74 77 75 69 68 69 67 67 59 57 54
13 15 16 16 18 17 16 19 25 26 29 38 42 46 50 58 55 56 55 49 43 44 47 45 45 45 45 44 42 44 45 45 43 38 38 50 66 69 69 66 69 78 57 64 63 58 58
15 16 17 17 17 18 20 19 24 28 27 38 41 44 55 59 56 57 52 46 43 48 50 49 50 49 43 44 45 43 45 48 48 44 45 50 51 64 76 67 77 41 44 48 50 52 52
14 15 18 20 20 19 20 21 23 28 29 34 41 44 50 59 59 55 53 50 46 48 53 51 51 51 51 48 50 48 46 50 56 54 52 52 56 69 78 75 56 44 45 50 54 54 52
15 16 18 22 23 22 22 22 22 25 31 33 42 45 49 59 63 61 58 55 52 53 56 54 56 55 53 55 56 63 56 46 45 54 67 62 70 83 80 83 76 60 55 57 69 74 64
17 18 20 24 25 26 26 26 27 27 30 35 39 43 50 58 59 61 64 62 58 56 56 58 56 56 56 59 60 61 56 51 54 51 56 67 80 89 82 86 70 59 76 58 64 74 80
21 22 22 25 27 28 31 32 32 32 32 35 41 45 49 58 62 62 66 65 62 60 59 59 61 63 61 68 67 69 73 68 61 59 65 64 75 85 91 91 86 83 80 84 83 73 80
27 26 25 26 29 31 35 35 34 34 34 35 41 48 54 63 62 62 65 61 61 61 61 64 62 61 63 65 65 65 68 64 59 56 50 64 73 89 85 79 82 78 76 83 73 74 75

GFSGBSN_prec_cthk_234.txt.gz
RH
16 14 12 10 9 11 12 11 10 9 8 7 6 6 5 4 4 3 3 3 3 3 3 3 3 2 2 8 8 8 6 6 5 6 10 18 23 26 27 22 17 11 8 8 8 7 11
16 15 14 12 10 11 12 12 10 9 8 7 7 6 5 4 3 3 3 3 3 4 4 4 4 3 9 9 9 9 7 6 5 7 8 10 18 20 27 28 23 18 15 11 9 7 9
19 17 15 12 10 11 16 12 10 8 7 6 6 6 5 4 4 4 4 5 5 4 5 5 4 4 10 10 9 6 5 5 5 5 7 9 12 17 20 23 27 25 23 17 12 8 9
20 17 13 12 10 12 15 13 11 9 8 6 6 6 5 5 4 4 5 6 6 6 6 7 8 10 13 11 7 9 8 7 9 10 5 6 10 15 17 18 21 30 28 26 19 16 9
15 14 13 11 11 12 12 11 9 9 8 7 7 6 6 5 5 5 7 8 8 8 9 11 13 17 17 13 12 9 8 8 8 8 13 7 7 12 15 17 17 17 25 27 24 23 18
18 16 14 12 12 13 13 11 10 9 8 8 7 7 6 6 6 7 8 9 11 13 11 17 17 16 21 13 10 9 9 8 12 13 13 17 10 11 19 19 18 12 15 20 24 23 24
17 15 14 13 13 13 13 13 11 9 9 8 8 8 7 6 7 10 9 11 14 22 11 13 13 12 12 14 14 14 12 10 11 12 15 20 18 14 15 18 14 15 13 13 16 22 25
17 17 16 15 15 16 15 14 11 10 10 9 9 9 8 7 9 14 17 18 20 17 22 17 17 16 17 19 21 21 19 18 16 18 15 23 28 16 13 19 20 18 16 15 15 17 23
17 16 17 18 17 16 15 14 12 11 10 10 10 9 9 10 13 19 21 19 22 21 29 22 19 22 18 22 25 27 25 23 23 22 25 23 23 26 21 18 24 25 22 17 16 17 21
17 17 17 17 16 15 14 13 12 12 11 10 10 10 9 11 18 22 22 20 17 29 41 19 19 26 22 24 29 29 38 39 34 27 31 30 25 30 37 23 24 25 23 23 19 20 22
19 19 18 17 17 16 15 15 14 13 12 12 11 11 11 13 17 26 23 20 24 37 48 15 19 21 19 24 29 31 34 41 54 40 37 36 36 33 44 36 27 23 28 31 26 27 24
21 20 20 19 19 19 18 16 15 14 13 13 12 12 12 21 28 24 20 22 34 49 33 16 20 21 22 21 30 34 34 49 55 62 42 32 39 48 58 61 40 27 37 30 36 43 42
20 21 22 21 21 20 19 18 17 16 15 15 14 14 14 20 26 18 21 31 45 42 20 20 19 20 17 23 31 38 30 52 68 78 67 51 24 44 46 62 50 38 40 48 48 52 51
20 21 21 22 22 22 21 20 18 18 18 19 19 19 20 24 17 19 33 36 44 25 28 21 23 21 21 29 32 33 32 45 61 66 70 61 56 24 49 66 68 49 41 47 60 52 44
19 19 19 20 21 22 22 22 21 20 20 22 26 30 34 22 17 27 39 45 42 27 25 28 27 24 24 31 34 30 34 49 56 61 71 73 59 53 33 41 54 56 57 38 45 52 51
18 17 17 17 18 19 20 21 23 24 23 21 29 37 34 21 24 33 40 41 35 30 31 32 40 33 36 38 41 43 44 60 62 65 69 61 59 52 50 54 31 28 35 57 55 53 58
19 17 16 15 16 17 18 19 21 25 25 27 33 42 38 25 31 41 45 42 37 32 32 34 36 37 39 40 47 48 52 58 69 74 70 69 68 50 55 56 43 38 30 34 49 60 58
15 17 15 15 15 16 17 18 20 24 26 30 39 45 37 32 44 42 44 38 34 35 31 31 34 41 42 44 45 41 48 64 73 64 65 70 69 65 52 42 50 64 62 75 72 42 51
14 14 13 14 14 16 16 16 19 22 23 32 43 44 37 36 48 47 44 39 34 32 33 34 34 34 36 42 49 39 40 46 57 57 63 62 63 66 44 43 53 67 67 74 85 81 60
14 14 14 14 14 15 15 16 19 21 22 28 36 41 45 43 44 44 50 43 36 36 33 34 35 36 37 45 45 40 37 34 37 43 46 54 56 62 62 58 80 83 58 67 70 89 93
16 14 14 14 14 14 14 14 17 20 23 29 34 39 40 45 48 47 49 48 42 44 40 37 39 40 40 44 38 41 39 34 33 34 40 56 72 77 67 63 71 78 72 59 57 57 72
19 18 16 15 16 15 14 14 16 20 22 30 30 39 38 36 42 46 50 53 46 47 42 45 44 43 39 43 45 43 38 38 37 34 37 43 48 55 54 56 54 64 60 57 49 49 48
19 18 18 17 18 16 15 15 16 19 21 35 33 31 33 40 41 46 53 53 52 46 47 45 44 45 44 44 43 41 40 37 37 41 45 44 43 45 43 44 50 52 48 54 57 55 53
21 20 21 20 19 19 17 16 17 19 22 30 32 35 40 42 40 45 48 52 52 52 52 50 50 49 47 46 42 41 38 36 37 38 46 45 42 50 55 48 57 34 42 47 48 51 53
22 21 21 21 19 18 18 18 18 20 21 27 37 34 39 39 38 39 43 51 53 55 55 56 54 53 48 48 49 48 44 44 41 41 49 56 62 70 69 64 48 37 36 42 53 55 70
22 22 22 22 23 22 19 20 19 20 23 26 34 35 37 38 39 40 43 49 56 59 61 59 57 51 55 53 56 60 56 48 43 35 58 63 74 82 88 86 74 47 52 60 67 71 76
23 22 22 23 24 25 25 23 23 22 24 28 32 39 41 40 32 36 42 54 59 60 63 62 60 57 56 58 62 60 56 53 55 52 50 62 68 88 87 96 74 66 72 62 70 72 72
26 25 25 26 26 27 27 28 27 27 26 28 35 40 43 42 36 36 41 52 62 62 65 63 61 61 60 64 64 64 73 61 61 50 53 58 65 68 75 85 94 87 84 91 87 73 75
30 28 28 28 28 29 30 30 31 31 32 33 38 44 44 45 37 40 43 53 59 59 63 64 62 62 64 69 68 68 67 61 55 56 47 58 57 61 71 81 75 72 89 84 84 90 85

GFSGBSN_prec_cthk_240.txt.gz
RH
15 13 13 12 11 17 17 12 9 8 6 5 4 4 4 3 3 3 3 3 3 3 3 3 3 2 5 7 9 9 8 8 5 4 4 5 9 14 19 21 21 23 23 19 14 8 5
19 19 15 12 11 10 17 11 9 7 5 5 5 4 4 3 3 3 4 4 4 3 3 3 3 3 6 8 10 9 7 5 5 5 5 5 6 8 13 15 19 23 23 23 21 15 11
20 20 18 12 11 13 16 11 8 6 6 5 5 5 4 4 4 5 5 5 5 5 5 5 5 6 8 9 8 6 5 4 4 5 5 7 5 6 9 11 13 14 18 17 18 21 16
17 19 15 12 12 12 12 9 8 6 6 6 5 5 5 4 6 7 6 6 6 7 8 8 8 9 10 10 8 7 6 6 5 5 5 5 8 7 5 8 10 12 12 15 11 13 20
15 14 14 12 11 12 12 9 8 7 7 6 6 6 5 6 9 9 7 8 8 9 8 9 11 11 11 8 8 8 8 8 8 6 4 6 8 10 8 8 11 13 15 11 9 9 16
21 17 14 12 12 11 11 9 8 8 7 7 7 6 6 9 9 9 9 11 9 9 12 8 9 11 8 11 11 11 10 9 9 8 6 6 9 15 14 13 12 16 14 12 13 10 9
18 17 14 13 12 12 11 10 10 9 8 8 8 8 7 10 11 9 10 11 13 8 9 10 11 12 12 13 13 13 13 9 10 10 12 11 11 14 15 17 19 18 17 14 10 10 16
19 17 15 14 14 13 12 12 11 10 10 9 9 9 8 13 14 12 9 10 14 15 15 13 12 13 13 15 16 15 14 12 14 16 16 14 15 13 12 15 17 20 27 21 18 16 15
19 19 17 16 15 14 13 12 12 11 11 10 10 9 8 14 15 14 13 15 16 18 19 16 15 14 14 15 16 17 17 15 17 17 19 19 18 17 16 16 19 21 27 27 24 19 14
20 20 18 17 17 16 14 13 12 12 12 11 10 10 9 11 15 16 13 16 21 25 18 16 18 17 12 15 18 17 18 17 20 21 22 23 18 24 26 23 20 25 26 35 40 34 21
22 18 18 17 17 16 16 14 14 13 12 11 11 11 12 12 15 16 17 20 26 30 26 14 17 15 12 14 16 20 18 19 22 23 24 22 23 28 32 32 31 26 33 39 42 47 37
23 19 18 17 18 18 17 17 16 15 14 13 12 12 12 16 15 15 19 25 29 26 24 17 16 15 17 18 19 19 18 19 23 25 24 23 22 28 33 30 30 31 41 48 50 54 56
29 23 20 20 19 19 20 19 18 17 16 15 14 14 14 13 14 19 24 27 25 30 20 20 18 19 21 21 21 22 22 31 36 39 33 24 22 26 31 34 38 43 57 73 57 59 45
31 24 22 21 21 21 21 21 20 19 17 17 17 18 16 15 14 21 26 26 26 25 23 20 19 21 24 23 22 23 25 31 37 38 40 41 33 28 30 38 48 59 65 94 95 74 48
31 27 23 23 22 22 22 23 22 21 20 21 23 22 21 19 24 27 25 33 32 26 22 22 25 23 26 22 25 28 32 41 44 43 48 53 40 29 36 39 49 56 74 61 91 91 72
33 32 27 24 23 23 24 24 23 22 22 21 25 27 25 20 25 27 28 37 34 25 23 25 30 28 29 28 30 29 31 43 41 40 40 48 52 31 29 35 51 58 66 85 85 83 91
35 32 32 27 24 22 22 22 22 21 21 24 30 34 30 25 30 28 34 38 33 28 25 26 28 27 29 32 30 28 32 41 40 33 37 40 48 33 30 33 56 69 67 70 79 94 85
35 35 32 31 25 22 21 20 19 20 22 25 29 34 28 28 28 34 37 34 30 30 27 27 27 29 30 30 30 31 33 33 33 31 38 37 40 51 29 34 52 66 76 76 81 80 79
36 38 35 33 30 24 20 19 18 19 22 26 30 33 26 26 31 35 35 33 29 29 28 30 30 30 28 29 34 35 35 33 32 31 34 36 42 44 32 41 52 60 62 71 86 89 85
39 38 37 36 32 26 21 19 18 19 22 26 27 31 28 25 28 31 34 32 31 29 28 29 29 31 34 34 33 35 33 33 30 30 30 31 38 39 47 49 52 50 55 61 66 82 83
39 41 39 39 35 29 23 19 17 20 19 26 27 27 25 32 27 34 30 29 30 31 31 31 31 34 38 38 37 36 33 32 31 30 32 34 44 45 44 43 41 38 33 36 47 52 69
49 42 43 40 38 34 27 21 17 19 22 26 25 28 30 29 30 32 33 33 31 31 31 32 34 34 36 40 38 41 38 36 36 32 34 35 42 42 37 31 31 36 33 31 30 30 38
48 49 45 43 40 36 32 24 19 19 21 27 25 27 28 29 33 35 34 31 29 32 29 30 32 36 38 41 40 37 37 37 36 36 40 44 46 49 48 45 41 38 39 42 39 42 48
53 57 46 44 41 38 35 28 22 20 20 26 28 27 27 29 32 32 30 30 31 33 32 31 33 35 37 39 40 39 36 34 36 37 42 48 54 57 59 52 55 39 54 57 52 59 57
59 60 56 43 41 39 36 33 25 24 20 29 31 29 28 31 29 29 30 34 33 33 32 32 32 35 38 40 43 46 45 41 37 39 42 50 55 64 66 66 47 46 62 61 67 69 63
65 57 61 54 42 39 38 35 31 26 23 27 34 31 31 28 27 29 31 32 35 34 35 34 36 38 40 43 46 57 59 48 48 44 43 49 54 63 69 72 72 66 59 61 63 72 65
70 62 58 55 48 40 38 37 34 30 26 24 36 35 33 30 25 28 30 32 32 33 37 37 38 40 42 49 55 61 62 52 57 51 50 58 65 67 67 72 64 70 57 54 69 65 55
76 68 62 56 53 43 41 36 35 34 29 27 33 36 34 33 27 29 30 30 31 32 39 37 41 46 51 52 56 58 67 65 65 57 53 51 55 61 66 71 65 53 54 60 55 55 61
78 72 64 62 55 46 44 38 36 37 35 29 29 35 37 36 30 28 30 31 32 35 36 41 42 47 47 50 55 59 70 69 62 60 47 50 48 54 53 51 45 48 53 54 59 57 57

GFSGBSN_prec_cthk_246.txt.gz
RH
19 18 18 16 11 10 11 18 11 8 9 8 7 7 6 5 5 5 5 5 5 4 4 4 5 6 7 7 7 7 6 5 5 5 5 6 9 12 16 18 19 19 20 20 20 18 15
18 19 19 18 14 9 12 9 8 7 8 7 7 6 5 5 6 6 5 5 5 5 5 4 5 6 6 7 8 7 6 5 4 4 5 4 5 5 9 11 14 18 18 18 15 17 18
14 18 19 19 15 10 9 8 7 7 7 6 6 6 5 6 7 6 5 5 6 7 6 6 7 6 6 8 8 8 7 6 5 4 5 6 6 4 5 5 6 8 9 9 12 14 15
13 14 13 16 14 13 9 8 7 7 6 6 6 5 5 7 7 6 6 6 7 8 7 7 7 6 8 9 8 8 6 6 5 4 4 5 6 6 6 6 6 9 9 10 8 8 8
15 18 15 17 15 14 10 9 7 7 6 6 6 5 5 7 7 7 7 7 7 9 9 9 8 7 10 10 9 9 7 6 6 5 5 6 6 7 7 8 7 12 17 14 11 8 9
16 17 14 15 13 11 12 9 8 7 7 6 6 6 6 8 8 8 8 9 8 9 10 10 9 9 11 12 10 10 9 8 7 6 6 6 7 10 11 10 16 15 16 15 15 10 11
20 17 15 13 13 12 11 13 9 9 8 8 8 7 7 9 9 9 9 10 10 11 10 12 12 12 12 13 12 12 9 8 7 8 10 9 12 16 14 14 13 14 15 16 15 11 12
24 19 17 14 15 14 13 14 11 10 9 8 8 8 8 11 12 9 11 11 12 12 13 12 12 12 12 13 12 13 10 10 10 13 11 11 16 15 15 16 16 15 16 17 14 12 13
27 25 21 21 16 17 15 14 13 11 10 9 9 9 9 13 14 12 11 11 14 15 14 12 11 11 13 13 14 13 13 13 13 15 17 15 17 16 17 18 18 17 18 18 18 15 15
27 28 25 23 19 19 17 15 14 13 12 11 10 11 11 11 15 14 14 14 15 15 15 14 14 14 13 14 15 14 14 13 16 18 17 16 19 18 17 19 21 22 19 20 21 22 28
28 28 28 26 26 20 19 17 15 14 13 13 12 11 14 13 13 14 16 16 18 17 21 14 14 14 14 15 15 18 16 15 19 20 16 20 19 20 20 20 20 20 21 22 21 26 28
32 28 29 29 28 27 21 19 17 16 15 13 12 12 14 16 14 16 19 20 22 25 16 17 15 17 17 17 19 19 18 17 19 19 19 21 20 20 22 17 21 20 21 23 25 29 37
36 34 30 30 30 30 26 21 20 18 16 14 14 14 15 15 14 18 22 25 27 26 17 18 17 18 19 20 21 23 25 25 29 20 30 24 22 22 23 17 21 25 28 40 37 43 44
39 37 35 31 31 31 31 27 22 20 17 16 17 17 18 15 16 22 24 24 18 22 21 19 18 19 21 21 22 25 28 32 27 29 36 35 22 25 24 22 24 31 35 46 58 56 54
42 40 38 34 33 32 33 31 24 22 19 19 23 22 21 19 22 24 25 29 23 25 21 21 22 23 24 23 22 26 35 37 30 27 34 38 32 23 21 25 28 33 41 40 52 57 62
52 42 40 39 35 34 34 32 28 24 22 22 27 27 25 21 26 29 27 28 26 24 22 22 25 24 27 25 26 24 36 36 30 26 27 33 34 26 20 32 38 38 38 50 55 63 60
56 53 43 40 40 38 35 32 29 27 24 24 29 31 30 23 29 29 32 31 29 25 23 25 27 28 28 27 26 26 37 31 26 25 27 26 32 26 24 26 32 43 44 50 53 67 71
57 58 50 44 41 42 39 36 35 29 27 28 33 37 35 29 30 34 33 31 28 26 24 23 25 27 29 29 29 29 33 29 27 27 27 29 31 36 30 25 32 38 41 43 54 58 61
65 64 60 53 47 43 44 38 37 33 31 34 41 39 38 35 33 38 37 35 32 27 25 25 26 27 28 29 30 30 32 30 29 28 28 27 34 35 34 40 41 43 41 42 41 52 55
66 71 69 57 52 47 46 43 39 36 33 40 43 43 39 36 32 34 37 37 34 29 27 25 27 27 28 29 30 35 35 34 32 30 30 28 32 30 27 27 33 34 33 35 38 51 44
66 74 81 66 55 53 48 48 42 40 36 41 47 40 36 35 33 32 31 33 34 31 27 24 25 27 27 32 32 33 33 33 32 32 31 33 37 36 34 34 35 34 34 32 35 34 44
72 77 83 79 61 56 51 50 47 42 39 43 48 41 37 33 30 30 30 31 29 29 26 26 25 27 27 29 27 32 32 32 32 33 33 34 40 37 39 32 32 35 33 35 37 41 43
72 78 87 89 70 61 57 54 51 47 40 42 43 40 37 37 36 32 30 29 28 27 26 25 25 27 28 27 26 27 30 31 31 34 37 40 41 47 46 37 41 41 37 36 45 46 46
75 86 87 96 79 67 62 54 53 49 41 38 40 41 38 39 36 33 29 27 29 28 28 27 26 27 26 27 28 30 31 33 36 37 38 44 45 49 55 46 45 31 39 42 47 47 51
86 86 87 97 89 74 67 55 54 53 46 43 43 40 36 39 34 34 32 29 30 30 28 28 28 27 27 28 32 30 33 32 37 41 42 44 47 57 60 61 42 38 45 47 48 51 49
89 95 88 96 97 80 73 61 53 56 52 47 48 44 38 33 33 29 33 31 33 34 34 32 31 30 29 32 32 32 31 32 38 48 48 49 51 55 64 67 63 38 48 49 53 60 47
95 96 90 94 98 88 78 71 63 58 57 50 52 51 43 34 27 30 31 31 29 32 36 34 33 33 31 36 40 39 39 36 42 45 57 59 60 60 66 70 55 41 44 46 58 50 48
95 96 98 92 98 94 85 75 74 67 61 55 54 56 50 38 32 29 30 28 29 29 33 32 36 37 37 39 39 39 41 41 44 45 51 54 61 63 65 70 66 43 43 45 41 39 42
95 98 98 93 98 97 90 81 73 72 68 61 59 60 57 49 40 32 31 30 29 30 29 31 29 29 32 35 36 39 43 46 44 51 47 55 50 56 53 48 42 43 40 38 40 40 39

GFSGBSN_prec_cthk_252.txt.gz
RH
17 14 17 19 19 17 13 16 11 8 10 9 8 8 7 7 7 6 5 7 10 12 13 12 13 11 12 14 14 13 13 13 13 13 17 17 17 17 18 17 19 21 21 17 15 13 13
19 16 14 17 19 16 16 17 12 8 10 9 8 9 9 9 9 7 6 6 7 9 9 10 12 12 11 12 10 9 8 8 7 8 10 15 15 16 15 15 15 16 17 17 17 17 15
22 19 17 21 20 20 19 19 15 8 8 9 8 9 9 10 9 8 7 7 7 7 8 8 8 9 11 11 9 8 7 6 5 6 6 6 7 11 11 11 11 11 10 11 13 14 16
23 23 20 19 21 21 20 19 19 10 8 8 9 10 9 10 10 8 8 8 8 8 8 8 8 8 9 8 8 8 7 6 5 5 5 4 5 5 7 7 7 7 8 7 10 12 11
24 23 24 22 21 21 18 17 20 15 9 8 8 9 8 9 9 9 9 9 9 9 9 8 8 9 9 8 9 7 6 7 7 6 5 4 5 6 5 5 5 6 6 8 7 9 8
22 23 25 25 20 19 22 21 19 19 10 8 7 7 7 10 9 9 10 11 10 10 10 9 9 9 10 10 8 8 7 6 8 7 6 6 7 6 5 4 5 6 6 7 9 9 10
27 24 25 26 25 23 23 21 19 15 11 8 7 7 7 10 9 10 10 11 12 12 11 13 12 12 11 11 9 8 7 8 7 7 8 8 8 10 9 7 6 6 7 8 10 10 11
37 36 29 26 26 26 24 23 18 14 11 10 9 8 8 9 9 10 11 12 12 14 14 12 12 12 12 11 11 10 8 9 8 9 9 10 12 12 11 10 8 9 9 11 12 12 12
35 35 37 30 29 27 26 24 22 15 13 12 10 9 9 9 11 11 12 12 13 13 15 14 14 14 13 12 13 12 11 11 10 9 11 11 13 12 10 10 9 12 12 13 13 14 13
37 35 37 40 34 29 28 27 25 18 15 13 12 11 10 10 13 13 13 13 14 12 15 14 14 14 13 13 14 13 12 13 13 14 13 13 14 11 11 11 11 11 13 14 16 15 15
37 38 37 36 41 37 32 29 27 22 17 15 13 12 12 12 16 18 15 15 16 13 37 14 15 14 14 15 15 15 14 15 13 14 14 16 15 12 14 15 14 13 15 16 17 17 18
33 36 37 38 36 39 38 33 29 26 19 17 14 14 14 16 17 18 17 18 18 29 42 16 15 17 17 17 18 17 16 15 16 14 16 16 16 15 14 16 16 15 16 17 17 18 19
24 31 38 38 38 38 41 39 33 30 25 19 17 15 15 19 22 23 21 23 30 46 16 17 16 16 18 18 20 18 17 17 14 17 18 18 18 17 16 17 15 18 16 14 14 15 17
21 24 27 39 41 41 41 43 40 33 31 23 20 17 18 18 19 26 26 26 44 19 15 17 16 17 18 18 21 22 19 17 19 17 15 15 17 19 16 17 16 21 19 14 19 14 17
17 16 20 23 39 44 45 43 44 40 33 29 23 21 21 19 19 30 31 43 35 15 17 17 18 18 20 19 20 23 24 20 18 20 16 15 18 16 18 20 21 20 24 25 27 26 26
21 18 15 12 26 38 45 48 46 44 40 34 29 26 29 21 23 34 38 39 20 18 18 17 17 17 18 18 19 23 24 22 18 18 21 17 18 20 21 24 23 27 25 32 26 30 25
23 22 17 14 9 25 42 48 50 48 45 38 33 34 33 26 29 39 46 34 21 21 21 19 19 19 18 19 19 23 26 25 19 18 17 16 17 20 22 23 24 25 24 28 30 34 28
27 27 26 18 14 7 34 49 54 52 50 44 39 41 37 31 38 43 39 23 22 21 22 21 21 21 19 19 19 21 23 22 19 19 18 18 18 17 21 22 22 25 28 27 27 33 31
30 29 29 27 16 10 18 50 56 56 54 51 46 45 43 39 46 42 32 28 25 24 23 22 22 22 22 21 22 23 24 24 21 21 21 18 20 25 27 25 27 27 25 25 25 26 27
39 35 36 33 22 13 7 48 55 61 58 58 50 50 48 50 44 34 31 31 28 26 25 24 23 23 24 24 23 26 27 26 25 23 21 20 21 23 25 30 30 33 31 27 25 30 28
37 42 42 41 31 24 9 37 65 68 65 64 54 51 48 51 47 38 36 31 30 29 27 25 25 24 23 25 26 27 29 29 28 28 26 25 28 23 22 21 23 28 31 31 29 23 26
41 50 48 51 48 38 18 21 58 74 74 69 57 54 52 46 42 42 40 39 31 29 28 27 26 25 25 24 23 26 27 27 29 30 30 27 29 25 28 24 25 28 25 24 25 24 22
49 56 56 69 61 51 30 35 74 79 79 67 62 52 59 48 43 46 39 35 33 32 32 29 28 30 29 27 24 25 26 26 25 27 28 27 27 27 31 29 31 37 28 24 24 23 23
52 66 66 77 84 67 42 69 82 86 75 73 68 58 63 58 46 42 40 38 37 36 34 33 33 33 34 28 27 27 27 26 25 28 26 27 26 28 35 33 45 32 30 25 25 28 27
57 70 75 82 89 75 54 83 97 88 86 88 78 63 66 59 51 47 43 43 43 43 39 37 38 37 35 31 31 34 34 32 31 28 29 27 28 40 46 35 28 28 29 30 27 31 32
71 73 81 79 79 76 49 76 96 93 88 99 89 72 64 68 56 50 47 48 47 44 44 43 40 38 36 34 36 40 39 28 33 35 34 33 31 36 46 47 38 29 30 30 33 33 30
68 76 82 85 83 73 59 81 94 97 96 99 92 75 69 71 59 56 53 51 48 46 45 42 41 40 38 37 45 38 31 25 33 35 37 40 40 45 43 46 34 28 31 35 39 38 31
73 82 85 96 98 81 83 90 95 96 95 99 94 80 67 72 65 60 59 55 53 49 44 41 42 42 39 45 41 39 34 29 28 28 30 32 41 44 41 46 44 29 36 36 35 33 32
73 81 87 96 98 91 82 93 90 91 99 99 97 87 75 83 71 62 61 56 54 50 45 41 38 34 35 38 37 33 37 34 28 36 30 33 27 33 31 32 30 28 29 32 33 32 33

GFSGBSN_prec_cthk_255.txt.gz
RH
20 18 17 17 16 13 12 12 9 7 6 6 6 7 7 6 7 8 7 5 9 12 22 21 20 18 19 21 20 17 15 16 17 16 18 22 24 23 23 25 22 21 20 15 12 13 12
22 20 20 21 20 18 17 13 10 8 7 7 7 7 7 8 9 9 8 7 8 10 15 19 19 16 16 20 18 17 15 14 14 17 17 16 21 21 24 21 19 22 22 20 17 14 12
25 22 21 20 20 22 16 13 11 10 8 7 7 8 8 9 10 11 10 9 9 8 10 16 17 15 17 19 14 14 12 11 11 13 12 11 13 16 20 17 17 16 14 14 16 17 16
25 23 21 22 20 19 15 12 11 12 9 8 7 8 9 10 11 11 10 10 9 10 9 12 12 15 18 13 12 12 11 10 8 8 9 7 7 10 15 15 14 13 12 13 15 12 11
29 25 25 23 23 22 16 14 13 12 10 8 7 8 9 10 12 11 11 11 10 10 9 9 10 14 12 9 11 10 9 9 7 7 6 5 6 6 6 6 7 9 8 10 14 10 8
34 34 33 28 23 24 24 22 17 12 10 9 8 7 9 9 11 11 11 12 11 10 9 9 10 12 9 11 9 9 8 8 8 7 6 6 7 6 5 6 6 6 8 8 10 9 12
32 33 35 34 33 25 25 24 22 15 11 10 8 7 7 8 11 11 13 15 13 14 12 16 13 15 14 10 10 10 8 8 8 8 9 7 7 8 7 7 8 7 7 9 9 12 16
33 33 31 34 36 35 30 26 25 19 14 12 10 9 7 8 11 12 14 23 21 24 17 13 12 13 12 11 11 11 9 10 9 9 8 8 13 11 9 7 6 6 9 11 9 9 16
35 36 35 33 32 37 35 31 26 25 18 14 12 10 9 9 11 13 20 17 14 15 18 14 14 13 12 12 14 12 10 10 10 9 10 11 12 9 9 8 9 9 10 11 10 12 17
30 31 35 36 36 33 36 34 29 27 25 16 14 12 10 10 13 15 21 14 15 15 21 16 13 14 12 13 14 13 13 13 11 12 14 13 10 10 9 10 11 11 11 11 10 12 17
22 26 29 32 36 37 35 35 33 28 27 23 16 14 12 13 19 21 22 15 16 15 53 17 14 15 13 13 17 14 11 12 14 14 13 14 12 10 11 11 13 14 12 12 14 15 14
19 21 24 27 31 36 38 37 35 34 29 27 20 17 14 21 21 22 18 17 19 32 48 17 15 13 14 15 17 17 14 14 14 13 14 14 14 13 13 12 14 10 14 13 15 17 20
17 17 21 21 22 28 36 38 40 36 36 28 25 20 16 16 30 21 20 24 33 54 17 16 16 15 15 17 18 16 16 14 15 18 17 13 14 12 14 12 12 14 16 17 19 18 24
18 18 18 17 17 21 29 39 42 42 36 36 29 24 19 18 26 24 30 32 54 20 17 16 15 16 19 20 19 17 15 17 19 18 15 14 15 12 12 16 14 17 17 25 21 18 20
20 21 21 19 18 11 16 31 42 46 42 37 35 30 30 28 20 28 38 52 41 19 17 16 19 19 19 21 20 19 18 16 14 18 17 15 20 16 15 16 17 15 20 22 26 22 18
30 22 20 19 21 20 11 15 30 44 47 41 42 36 34 35 22 36 43 50 26 20 17 17 18 18 20 20 19 20 21 21 17 18 21 18 19 14 14 17 18 23 21 18 21 24 25
31 30 28 26 19 21 21 11 14 39 49 49 45 42 47 36 27 43 52 42 26 21 17 18 19 18 17 19 17 21 23 20 15 15 16 17 17 18 17 20 17 18 18 24 25 28 23
31 33 28 30 26 23 20 16 7 26 52 53 51 48 53 44 40 42 50 35 27 24 19 20 22 20 18 18 18 21 24 19 15 14 16 18 20 16 18 19 22 25 21 23 25 29 20
28 29 28 30 28 28 27 23 11 21 50 58 55 49 55 51 58 51 43 36 32 25 23 22 23 22 21 20 22 25 23 21 17 16 20 16 21 27 24 19 18 19 20 23 25 27 26
30 31 29 31 31 34 31 26 21 10 49 63 61 58 56 56 56 49 42 37 34 26 26 24 24 25 25 23 23 25 27 21 20 18 19 16 22 27 26 26 21 22 20 19 19 25 24
28 28 28 32 33 37 40 34 26 15 46 71 65 55 50 56 58 56 45 35 33 30 28 28 27 26 26 28 26 27 27 24 22 22 18 21 26 23 22 24 23 23 23 21 21 22 25
31 28 28 32 36 44 49 46 42 27 35 74 74 57 52 56 56 54 49 43 34 32 29 29 28 26 25 27 25 28 26 24 24 25 24 24 28 24 25 21 20 20 19 22 22 22 22
32 27 31 37 44 51 58 60 60 46 51 79 75 69 64 57 64 62 49 39 40 38 33 30 30 30 28 30 28 29 29 29 27 26 26 25 26 27 26 23 25 31 22 19 20 22 21
29 29 36 44 49 60 62 66 78 65 65 75 80 76 71 61 65 52 55 45 42 41 40 35 33 34 36 34 33 32 35 33 29 28 28 25 27 28 31 27 44 24 21 20 19 20 21
34 30 37 52 50 58 67 70 76 75 68 93 87 91 79 74 53 62 56 53 48 49 48 43 37 41 38 35 36 39 40 35 34 31 30 28 27 37 41 30 26 22 21 19 21 22 22
42 34 33 44 54 59 70 73 74 75 66 88 89 96 88 82 68 64 65 62 56 55 57 49 47 43 40 40 44 54 46 35 35 34 31 30 27 34 39 45 41 25 20 22 22 27 24
46 42 38 35 54 66 77 78 76 72 65 83 87 95 96 87 78 74 73 65 59 64 62 55 50 49 46 48 57 45 36 28 36 35 35 35 33 39 41 42 31 23 20 21 27 32 27
48 47 39 39 59 73 83 90 95 83 77 90 94 95 99 90 83 75 75 78 71 73 69 56 58 57 55 58 50 49 40 30 31 28 29 28 33 35 36 44 41 22 23 22 25 29 26
46 45 39 40 56 80 89 97 98 88 91 94 94 93 99 98 90 84 70 71 78 79 75 63 50 51 47 52 46 42 43 34 29 35 28 29 23 29 27 28 25 23 24 23 27 25 26

GFSGBSN_prec_cthk_258.txt.gz
RH
21 21 20 18 20 19 18 13 9 7 7 5 5 5 5 5 5 6 5 5 5 5 7 16 20 19 18 21 24 24 18 17 21 28 20 24 26 28 24 24 20 18 17 12 10 10 9
26 21 19 21 18 19 22 19 11 9 8 7 5 5 6 6 6 7 7 7 6 6 6 13 21 22 21 24 23 22 18 15 17 21 21 19 23 26 26 25 27 24 20 18 15 13 12
27 22 20 21 23 20 17 18 15 11 9 8 6 6 6 7 7 9 9 8 7 7 7 13 19 21 28 27 24 22 18 15 14 16 18 19 19 20 26 26 26 27 23 20 20 20 17
32 30 29 24 21 24 21 22 23 17 11 9 8 6 7 7 8 10 10 10 9 9 9 14 17 20 31 25 23 20 16 16 13 15 14 14 16 17 18 23 25 19 18 17 17 15 14
30 33 33 32 27 22 25 23 21 19 13 10 8 7 7 8 10 11 10 10 10 10 10 11 14 20 27 19 16 15 13 14 12 12 13 9 10 12 12 12 14 19 17 19 21 14 14
33 32 32 32 32 29 24 25 23 21 17 11 9 8 7 8 10 11 11 12 12 11 11 10 18 21 18 16 16 13 12 11 12 9 7 7 7 7 8 6 10 11 11 13 16 12 12
31 33 33 32 31 32 32 27 25 23 20 15 11 9 8 7 9 11 12 15 16 16 15 16 23 16 16 14 11 12 11 9 10 9 9 7 8 7 5 5 6 9 7 13 14 17 17
28 30 33 33 34 32 32 33 27 25 23 18 14 11 9 7 8 11 15 27 29 35 25 15 18 15 15 13 12 10 8 9 9 9 10 8 10 12 9 8 7 9 11 14 17 19 20
23 25 29 30 32 35 35 33 33 27 24 23 18 14 11 9 9 12 21 24 21 26 23 19 13 13 13 10 14 13 10 11 9 11 8 9 16 12 9 7 7 10 13 11 11 16 25
20 21 21 26 25 28 32 36 34 34 28 25 22 18 13 11 15 17 21 22 20 19 28 20 14 14 13 13 14 13 12 13 11 10 13 16 13 11 9 8 10 12 14 12 12 16 22
19 19 20 22 23 23 27 33 36 34 34 28 25 20 17 15 17 27 30 21 19 21 60 23 18 15 13 13 17 12 11 13 14 15 15 15 11 9 10 12 13 14 13 12 11 18 22
22 21 18 18 19 21 18 25 33 36 35 33 27 24 20 23 21 23 22 19 22 35 48 21 18 14 14 13 14 18 10 13 16 16 15 14 11 12 13 13 14 13 12 14 13 17 23
21 19 19 18 18 14 12 16 21 30 35 34 31 26 24 20 31 28 20 27 35 57 15 18 16 15 13 13 15 16 14 13 14 16 18 16 13 14 13 13 13 13 14 17 20 25 21
23 21 20 20 19 17 16 13 14 16 32 35 34 28 23 23 20 31 29 39 56 25 20 18 17 16 15 16 17 16 15 13 15 15 19 15 18 12 12 12 11 13 14 23 24 22 25
30 30 26 23 23 22 21 19 15 12 23 37 35 33 28 29 28 30 39 57 46 23 19 19 18 18 17 20 20 20 18 15 17 16 18 16 17 14 12 16 17 18 19 24 30 30 31
38 36 36 31 28 28 24 22 19 12 11 32 37 37 29 28 37 37 48 51 35 21 24 21 21 19 19 22 22 21 19 16 19 18 23 21 25 17 14 16 18 21 22 22 26 29 23
36 35 37 36 33 28 28 25 22 19 10 24 43 40 38 33 42 45 55 47 33 26 25 24 22 23 21 24 23 22 20 22 19 18 22 23 21 19 16 15 14 22 22 23 23 25 22
37 37 37 39 38 35 28 27 23 23 18 20 52 49 43 57 48 44 52 41 33 30 28 24 22 24 25 25 25 23 24 24 19 17 21 20 23 22 16 17 21 15 17 20 25 25 26
38 37 36 34 33 30 29 28 30 27 25 22 51 51 47 50 60 50 49 42 41 37 32 29 24 24 28 26 28 23 26 28 20 16 17 19 23 21 22 19 21 20 20 18 23 31 20
38 37 34 29 32 32 32 30 35 34 30 27 47 60 49 56 51 56 52 48 48 40 39 32 28 27 29 27 26 25 32 27 21 17 19 18 22 21 24 17 13 19 18 21 24 34 24
40 39 36 32 31 33 37 35 39 43 37 41 41 54 58 54 52 56 63 52 47 44 36 33 31 28 30 32 28 27 30 27 22 22 20 21 25 25 27 25 19 15 16 16 18 19 24
40 39 37 33 32 36 38 40 42 50 50 59 47 51 62 58 54 57 52 58 55 44 44 35 34 32 31 33 28 28 27 24 21 22 20 21 26 25 26 22 20 24 22 20 17 19 19
48 47 38 33 30 34 40 41 43 57 59 62 63 49 74 70 68 61 62 46 53 57 46 41 38 37 34 32 33 33 31 27 24 22 22 23 27 27 29 20 20 27 19 19 20 19 20
46 39 41 37 32 29 38 41 40 51 65 71 73 66 78 66 74 68 58 64 57 54 55 51 47 41 38 40 43 43 39 33 32 26 25 25 28 27 36 27 41 22 18 16 16 18 20
51 50 50 37 34 30 27 34 40 51 64 75 77 79 73 67 79 74 59 61 70 58 62 60 56 46 51 49 54 54 52 45 38 33 31 28 29 43 46 35 27 23 19 15 17 16 17
60 50 46 48 37 38 30 27 36 48 65 80 84 85 81 85 75 79 78 65 75 74 66 59 65 59 56 57 61 68 55 44 44 38 33 31 34 39 44 45 39 19 16 14 16 20 17
61 52 48 51 46 38 38 34 38 54 71 85 77 86 89 93 75 80 84 73 74 76 73 66 74 65 62 62 70 63 49 39 43 36 36 36 38 46 44 46 30 23 18 15 22 21 17
59 60 53 50 57 44 39 37 45 63 75 89 72 79 93 95 78 83 87 89 78 86 85 78 83 78 74 74 70 61 52 40 40 33 33 33 39 42 42 42 38 21 20 19 18 18 19
58 68 63 59 55 54 39 40 48 66 78 93 86 80 94 93 78 91 82 90 86 92 88 89 76 66 61 67 60 53 58 48 43 46 34 35 27 32 30 27 20 16 17 20 21 19 20

GFSGBSN_prec_cthk_261.txt.gz
RH
18 17 16 17 17 17 14 13 13 13 12 9 6 5 4 4 4 4 4 5 5 4 4 4 5 10 15 18 17 22 32 32 28 20 16 24 25 28 29 28 25 16 16 12 12 12 12
21 21 19 20 19 18 18 15 16 14 12 8 7 6 5 5 5 5 5 6 6 6 5 4 5 12 13 23 20 20 23 28 24 17 20 25 26 25 27 27 27 22 16 15 13 10 12
24 28 28 24 21 20 18 20 21 17 15 11 8 7 6 5 5 6 6 7 7 7 6 6 7 12 16 17 23 23 22 23 19 17 20 30 24 23 29 29 27 26 21 16 16 16 15
30 30 29 30 27 23 21 21 20 18 16 15 10 8 7 6 6 7 8 9 9 8 7 9 9 10 16 22 24 25 24 21 19 16 18 26 23 18 25 30 29 27 27 28 23 20 19
30 31 31 31 30 31 25 22 21 21 18 16 15 9 8 6 6 7 9 10 10 10 10 11 11 13 19 26 25 24 21 20 19 17 16 20 20 21 22 20 26 27 25 22 20 18 22
28 29 30 31 31 31 31 31 24 21 20 17 15 14 9 7 6 8 11 12 11 11 11 11 15 17 18 24 24 22 18 19 17 15 13 14 21 17 23 25 22 22 24 28 28 18 22
25 26 27 29 30 31 30 32 32 26 21 20 17 14 13 8 7 9 14 20 21 19 14 10 16 14 19 23 22 20 19 16 15 14 13 11 16 25 15 14 8 6 8 14 20 23 31
22 22 21 25 27 27 27 29 31 31 27 22 20 16 14 11 8 9 18 27 29 30 27 14 15 16 17 18 20 17 16 14 13 12 11 12 14 10 11 9 6 12 11 16 23 21 21
22 21 21 21 21 25 24 24 27 31 29 26 22 18 15 14 13 15 17 26 23 24 28 18 15 14 16 16 16 16 12 13 11 12 12 12 9 11 10 8 9 13 17 23 24 26 27
24 23 21 20 20 21 19 21 24 25 26 27 25 22 17 15 19 20 24 24 20 23 29 16 17 15 15 14 15 15 12 13 11 12 11 13 12 12 11 9 12 17 17 18 24 26 28
25 25 29 23 22 20 19 15 18 17 23 24 26 24 19 23 21 31 29 25 18 23 49 26 20 17 15 19 15 14 12 13 12 14 14 17 14 14 14 12 13 19 18 17 19 23 26
24 26 29 32 31 29 22 19 14 13 18 19 24 27 23 19 21 24 25 20 22 36 46 23 21 21 18 17 20 17 12 14 15 16 16 15 13 14 15 15 13 17 18 16 17 23 36
27 30 27 28 27 31 23 21 20 13 10 13 14 25 26 21 21 31 25 28 38 47 16 20 19 18 19 16 16 17 14 16 17 19 18 15 14 14 14 15 15 16 18 26 27 32 33
33 30 33 32 28 24 24 22 20 17 12 9 12 18 24 22 18 27 32 42 53 27 18 21 20 19 19 18 16 19 16 17 15 16 23 21 19 14 13 14 15 17 17 28 27 32 24
33 34 33 32 31 27 28 28 24 19 17 14 10 15 19 19 23 26 38 51 40 32 17 16 22 22 21 18 19 22 20 16 13 16 20 21 18 13 13 14 15 16 17 18 28 21 29
37 35 34 34 32 28 28 28 29 27 22 20 13 15 18 26 24 32 43 42 37 27 21 26 28 24 23 20 23 25 24 16 15 17 21 21 22 15 14 15 15 16 16 27 32 38 39
36 36 34 35 33 31 36 33 32 30 28 25 14 27 27 32 30 39 44 40 32 29 27 29 28 29 25 26 25 27 24 19 16 19 22 26 23 22 17 17 19 22 23 23 27 36 41
38 39 38 35 35 34 34 36 36 39 39 33 29 35 42 56 54 43 37 36 30 32 29 36 33 28 29 31 32 28 26 25 21 21 23 26 27 28 22 15 17 22 23 23 32 30 37
41 41 38 37 35 34 33 33 38 39 41 44 38 29 30 56 61 60 43 37 33 34 38 34 34 30 29 33 38 33 29 26 25 23 23 27 33 33 26 23 18 20 21 23 29 30 28
44 41 42 40 37 34 34 42 42 41 46 48 50 42 46 41 57 60 61 56 39 35 39 39 41 39 32 33 34 39 39 30 30 28 24 26 31 29 30 22 20 21 19 20 25 42 32
45 47 45 43 44 36 34 37 40 41 44 50 56 51 41 59 60 62 58 58 58 47 40 45 43 43 39 35 36 43 41 36 30 30 28 28 32 26 24 22 20 17 18 21 25 23 30
57 60 52 46 47 48 37 34 33 39 41 53 61 65 55 40 49 63 68 54 51 45 54 48 50 44 41 39 35 47 40 39 34 32 31 26 31 27 27 25 21 21 18 20 22 22 22
53 57 56 57 49 50 42 34 31 31 43 54 63 62 65 55 43 53 60 61 66 54 42 55 58 53 47 37 36 47 45 40 36 35 33 27 31 36 35 26 27 28 22 17 17 17 17
61 58 55 59 56 50 46 38 33 26 38 52 64 65 65 60 60 42 52 63 65 69 62 46 63 63 46 48 50 52 50 41 39 34 27 29 31 34 43 32 37 22 16 17 17 16 19
61 60 59 56 67 53 52 46 36 32 29 36 49 68 71 69 62 51 52 63 61 70 66 66 49 59 62 63 65 68 67 53 45 38 30 29 32 40 40 41 30 24 17 16 19 20 19
59 59 56 60 63 62 52 57 57 35 30 37 36 64 74 74 55 62 55 68 71 74 64 56 47 74 76 74 80 80 72 56 55 46 35 34 35 39 46 42 41 24 20 17 17 22 17
59 58 61 62 61 63 58 51 46 46 33 40 40 57 75 74 64 62 61 69 71 78 80 74 56 76 77 83 84 85 74 52 56 48 42 42 45 45 52 51 38 22 19 19 23 17 12
61 64 64 59 57 63 65 59 55 52 39 41 44 58 73 79 75 56 51 61 67 77 82 61 88 82 92 91 80 80 69 55 51 44 40 41 49 53 49 49 37 22 21 20 14 12 11
66 65 61 58 58 67 69 65 59 62 51 40 52 61 72 87 83 53 49 51 64 72 77 87 92 94 92 92 80 71 69 61 51 52 41 48 41 42 37 32 21 20 19 17 13 11 12